| time (UTC) | temp F | wind direction | speed knots | gust knots | rain 1hr in | rain 24hr in | rain mn in | humidity % | barometer mb |
| 20260504004724 | 46 | 204 | 0.0 | 0.0 | 0.00 | 0.00 | 0.00 | 63 | 1017.2 |
| 20260504004221 | 45 | 212 | 0.0 | 0.0 | 0.00 | 0.00 | 0.00 | 55 | 1017.4 |
| 20260504003717 | 46 | 212 | 0.0 | 0.0 | 0.00 | 0.00 | 0.00 | 54 | 1017.2 |
| 20260504003214 | 47 | 231 | 0.0 | 0.0 | 0.00 | 0.00 | 0.00 | 58 | 1017.1 |
| 20260504002711 | 47 | 288 | 0.0 | 0.9 | 0.00 | 0.00 | 0.00 | 47 | 1017.2 |
| 20260504002208 | 47 | 210 | 0.0 | 0.0 | 0.00 | 0.00 | 0.00 | 53 | 1017.0 |
| 20260504001706 | 49 | 211 | 0.0 | 0.0 | 0.00 | 0.00 | 0.00 | 56 | 1017.0 |
| 20260504001202 | 50 | 231 | 0.0 | 0.0 | 0.00 | 0.00 | 0.00 | 42 | 1017.2 |
| 20260504000659 | 51 | 275 | 0.0 | 0.9 | 0.00 | 0.00 | 0.00 | 41 | 1017.1 |
| 20260504000156 | 51 | 274 | 0.0 | 0.9 | 0.00 | 0.00 | 0.00 | 41 | 1017.1 |
| 20260503235654 | 52 | 292 | 1.7 | 2.6 | 0.00 | 0.00 | 0.00 | 39 | 1017.2 |
| 20260503235151 | 52 | 292 | 1.7 | 2.6 | 0.00 | 0.00 | 0.00 | 39 | 1017.2 |
| 20260503234649 | 53 | 265 | 0.0 | 1.7 | 0.00 | 0.00 | 0.00 | 39 | 1016.7 |
| 20260503234147 | 53 | 297 | 0.0 | 0.9 | 0.00 | 0.00 | 0.00 | 39 | 1016.8 |
| 20260503233643 | 53 | 271 | 0.0 | 3.5 | 0.00 | 0.00 | 0.00 | 41 | 1017.2 |
| 20260503233139 | 53 | 282 | 1.7 | 2.6 | 0.00 | 0.00 | 0.00 | 41 | 1017.1 |
| 20260503232636 | 54 | 317 | 1.7 | 2.6 | 0.00 | 0.00 | 0.00 | 38 | 1017.1 |
| 20260503232134 | 55 | 277 | 3.5 | 7.8 | 0.00 | 0.00 | 0.00 | 37 | 1017.0 |
| 20260503231632 | 56 | 270 | 0.0 | 1.7 | 0.00 | 0.00 | 0.00 | 38 | 1017.0 |
| 20260503231128 | 55 | 286 | 0.9 | 1.7 | 0.00 | 0.00 | 0.00 | 36 | 1017.1 |
| 20260503230625 | 56 | 257 | 2.6 | 3.5 | 0.00 | 0.00 | 0.00 | 33 | 1017.0 |
| 20260503230122 | 58 | 72 | 0.9 | 1.7 | 0.00 | 0.00 | 0.00 | 34 | 1017.0 |
| 20260503225620 | 58 | 345 | 0.9 | 1.7 | 0.00 | 0.00 | 0.00 | 34 | 1017.0 |
| 20260503225119 | 58 | 298 | 0.9 | 5.2 | 0.00 | 0.00 | 0.00 | 35 | 1017.1 |
| 20260503224617 | 58 | 133 | 0.0 | 0.0 | 0.00 | 0.00 | 0.00 | 36 | 1017.2 |
| 20260503224114 | 58 | 296 | 1.7 | 2.6 | 0.00 | 0.00 | 0.00 | 33 | 1017.1 |
| 20260503223612 | 59 | 78 | 0.0 | 0.9 | 0.00 | 0.00 | 0.00 | 33 | 1017.0 |
| 20260503223108 | 59 | 311 | 1.7 | 2.6 | 0.00 | 0.00 | 0.00 | 33 | 1017.0 |
| 20260503222606 | 59 | 310 | 0.0 | 1.7 | 0.00 | 0.00 | 0.00 | 33 | 1016.8 |
| 20260503222103 | 59 | 292 | 0.9 | 1.7 | 0.00 | 0.00 | 0.00 | 34 | 1016.8 |
| 20260503221601 | 59 | 261 | 0.9 | 2.6 | 0.00 | 0.00 | 0.00 | 38 | 1017.2 |
| 20260503221058 | 59 | 301 | 0.0 | 1.7 | 0.00 | 0.00 | 0.00 | 38 | 1016.8 |
| 20260503220555 | 57 | 193 | 0.9 | 3.5 | 0.00 | 0.00 | 0.00 | 37 | 1017.1 |
| 20260503220052 | 58 | 304 | 4.3 | 6.1 | 0.00 | 0.00 | 0.00 | 34 | 1016.8 |
| 20260503215549 | 58 | 284 | 5.2 | 7.0 | 0.00 | 0.00 | 0.00 | 33 | 1017.0 |
| 20260503215046 | 58 | 287 | 2.6 | 2.6 | 0.00 | 0.00 | 0.00 | 33 | 1017.1 |
| 20260503214544 | 58 | 290 | 0.0 | 1.7 | 0.00 | 0.00 | 0.00 | 32 | 1017.0 |
| 20260503214040 | 58 | 263 | 7.0 | 9.6 | 0.00 | 0.00 | 0.00 | 31 | 1017.0 |
| 20260503213538 | 60 | 316 | 0.9 | 1.7 | 0.00 | 0.00 | 0.00 | 33 | 1017.0 |
| 20260503213035 | 60 | 207 | 1.7 | 5.2 | 0.00 | 0.00 | 0.00 | 32 | 1017.0 |
| 20260503212532 | 58 | 332 | 0.9 | 2.6 | 0.00 | 0.00 | 0.00 | 35 | 1017.1 |
| 20260503212030 | 58 | 286 | 3.5 | 6.1 | 0.00 | 0.00 | 0.00 | 31 | 1017.1 |
| 20260503211527 | 58 | 301 | 4.3 | 7.8 | 0.00 | 0.00 | 0.00 | 32 | 1017.4 |
| 20260503211022 | 59 | 329 | 0.0 | 0.9 | 0.00 | 0.00 | 0.00 | 31 | 1017.3 |
| 20260503210519 | 59 | 104 | 1.7 | 2.6 | 0.00 | 0.00 | 0.00 | 33 | 1017.1 |
| 20260503210015 | 58 | 317 | 1.7 | 7.8 | 0.00 | 0.00 | 0.00 | 35 | 1017.2 |
| 20260503205512 | 58 | 276 | 1.7 | 8.7 | 0.00 | 0.00 | 0.00 | 37 | 1017.2 |
| 20260503205008 | 57 | 279 | 4.3 | 7.8 | 0.00 | 0.00 | 0.00 | 34 | 1017.4 |
| 20260503204505 | 58 | 96 | 0.0 | 8.7 | 0.00 | 0.00 | 0.00 | 28 | 1017.3 |
| 20260503204002 | 59 | 169 | 3.5 | 6.1 | 0.00 | 0.00 | 0.00 | 35 | 1017.3 |
| 20260503203459 | 60 | 256 | 0.9 | 2.6 | 0.00 | 0.00 | 0.00 | 31 | 1017.3 |
| 20260503202956 | 59 | 295 | 1.7 | 2.6 | 0.00 | 0.00 | 0.00 | 35 | 1017.4 |
| 20260503202454 | 58 | 121 | 0.0 | 2.6 | 0.00 | 0.00 | 0.00 | 34 | 1017.6 |
| 20260503201952 | 58 | 334 | 7.0 | 8.7 | 0.00 | 0.00 | 0.00 | 36 | 1017.4 |
| 20260503201449 | 58 | 316 | 1.7 | 6.1 | 0.00 | 0.00 | 0.00 | 34 | 1017.6 |
| 20260503200947 | 58 | 253 | 4.3 | 7.0 | 0.00 | 0.00 | 0.00 | 33 | 1017.7 |
| 20260503200443 | 58 | 259 | 0.9 | 7.8 | 0.00 | 0.00 | 0.00 | 37 | 1017.8 |
| 20260503195940 | 58 | 323 | 0.9 | 5.2 | 0.00 | 0.00 | 0.00 | 35 | 1017.8 |
| 20260503195437 | 58 | 231 | 2.6 | 3.5 | 0.00 | 0.00 | 0.00 | 34 | 1017.9 |
| 20260503194933 | 57 | 238 | 0.9 | 2.6 | 0.00 | 0.00 | 0.00 | 38 | 1018.2 |
| 20260503194430 | 57 | 272 | 1.7 | 5.2 | 0.00 | 0.00 | 0.00 | 33 | 1018.0 |
| 20260503193926 | 57 | 314 | 5.2 | 8.7 | 0.00 | 0.00 | 0.00 | 35 | 1018.3 |
| 20260503193421 | 57 | 206 | 3.5 | 7.8 | 0.00 | 0.00 | 0.00 | 37 | 1018.2 |
| 20260503192917 | 57 | 29 | 4.3 | 6.1 | 0.00 | 0.00 | 0.00 | 35 | 1018.6 |
| 20260503192414 | 57 | 311 | 1.7 | 2.6 | 0.00 | 0.00 | 0.00 | 36 | 1018.3 |
| 20260503191909 | 58 | 20 | 0.9 | 5.2 | 0.00 | 0.00 | 0.00 | 37 | 1018.6 |
| 20260503191407 | 57 | 79 | 1.7 | 7.8 | 0.00 | 0.00 | 0.00 | 38 | 1018.5 |
| 20260503190903 | 56 | 274 | 0.9 | 2.6 | 0.00 | 0.00 | 0.00 | 39 | 1018.5 |
| 20260503190401 | 57 | 292 | 0.0 | 2.6 | 0.00 | 0.00 | 0.00 | 35 | 1018.6 |
| 20260503185857 | 57 | 129 | 0.9 | 1.7 | 0.00 | 0.00 | 0.00 | 43 | 1018.5 |
| 20260503185354 | 57 | 351 | 1.7 | 3.5 | 0.00 | 0.00 | 0.00 | 38 | 1018.7 |
| 20260503184854 | 57 | 323 | 1.7 | 3.5 | 0.00 | 0.00 | 0.00 | 38 | 1018.7 |
| 20260503184350 | 57 | 257 | 2.6 | 3.5 | 0.00 | 0.00 | 0.00 | 33 | 1018.7 |
| 20260503183846 | 56 | 221 | 0.9 | 5.2 | 0.00 | 0.00 | 0.00 | 41 | 1018.8 |
| 20260503183343 | 56 | 26 | 0.9 | 3.5 | 0.00 | 0.00 | 0.00 | 38 | 1018.7 |
| 20260503182840 | 56 | 155 | 1.7 | 5.2 | 0.00 | 0.00 | 0.00 | 39 | 1018.8 |
| 20260503182340 | 56 | 284 | 2.6 | 2.6 | 0.00 | 0.00 | 0.00 | 39 | 1018.8 |
| 20260503181836 | 55 | 319 | 1.7 | 7.0 | 0.00 | 0.00 | 0.00 | 39 | 1018.9 |
| 20260503181333 | 56 | 280 | 2.6 | 5.2 | 0.00 | 0.00 | 0.00 | 36 | 1019.1 |
| 20260503180830 | 55 | 133 | 1.7 | 2.6 | 0.00 | 0.00 | 0.00 | 43 | 1019.1 |
| 20260503180328 | 55 | 306 | 7.0 | 7.8 | 0.00 | 0.00 | 0.00 | 37 | 1019.3 |
| 20260503175824 | 55 | 339 | 3.5 | 5.2 | 0.00 | 0.00 | 0.00 | 39 | 1019.1 |
| 20260503175322 | 54 | 321 | 3.5 | 7.8 | 0.00 | 0.00 | 0.00 | 41 | 1019.2 |
| 20260503174817 | 56 | 218 | 0.9 | 2.6 | 0.00 | 0.00 | 0.00 | 41 | 1019.2 |
| 20260503174316 | 55 | 302 | 0.9 | 1.7 | 0.00 | 0.00 | 0.00 | 39 | 1019.4 |
| 20260503173811 | 54 | 296 | 2.6 | 3.5 | 0.00 | 0.00 | 0.00 | 37 | 1019.3 |
| 20260503173307 | 55 | 321 | 1.7 | 3.5 | 0.00 | 0.00 | 0.00 | 43 | 1019.2 |
| 20260503172804 | 53 | 264 | 0.0 | 2.6 | 0.00 | 0.00 | 0.00 | 43 | 1019.3 |
| 20260503172302 | 53 | 54 | 2.6 | 3.5 | 0.00 | 0.00 | 0.00 | 38 | 1019.5 |
| 20260503171758 | 53 | 254 | 0.9 | 3.5 | 0.00 | 0.00 | 0.00 | 42 | 1019.6 |
| 20260503171255 | 52 | 102 | 0.9 | 2.6 | 0.00 | 0.00 | 0.00 | 37 | 1019.6 |
| 20260503170752 | 53 | 274 | 0.9 | 2.6 | 0.00 | 0.00 | 0.00 | 47 | 1019.5 |
| 20260503170248 | 52 | 46 | 2.6 | 2.6 | 0.00 | 0.00 | 0.00 | 39 | 1019.5 |
| 20260503160210 | 51 | 294 | 0.9 | 5.2 | 0.00 | 0.00 | 0.00 | 46 | 1020.4 |
| 20260503150641 | 49 | 314 | 3.5 | 7.0 | 0.00 | 0.00 | 0.00 | 47 | 1020.8 |
| 20260503150137 | 47 | 339 | 0.9 | 6.1 | 0.00 | 0.00 | 0.00 | 52 | 1020.9 |
| 20260503131030 | 44 | 304 | 3.5 | 5.2 | 0.00 | 0.00 | 0.00 | 53 | 1020.4 |
| 20260503130527 | 42 | 334 | 0.9 | 2.6 | 0.00 | 0.00 | 0.00 | 57 | 1020.4 |
| 20260503110418 | 35 | 310 | 3.5 | 6.1 | 0.00 | 0.00 | 0.00 | 75 | 1019.2 |
| 20260503090309 | 35 | 274 | 2.6 | 6.1 | 0.00 | 0.00 | 0.00 | 72 | 1017.9 |
| 20260503081242 | 35 | 330 | 0.9 | 3.5 | 0.00 | 0.00 | 0.00 | 68 | 1017.7 |
| 20260503080737 | 35 | 301 | 3.5 | 8.7 | 0.00 | 0.00 | 0.00 | 67 | 1017.6 |
| 20260503080236 | 35 | 287 | 2.6 | 6.1 | 0.00 | 0.00 | 0.00 | 67 | 1017.6 |
| 20260503072712 | 36 | 294 | 2.6 | 7.8 | 0.00 | 0.00 | 0.00 | 68 | 1017.5 |
| 20260503072209 | 37 | 302 | 8.7 | 8.7 | 0.00 | 0.00 | 0.00 | 68 | 1017.4 |
| 20260503071705 | 37 | 321 | 2.6 | 7.8 | 0.00 | 0.00 | 0.00 | 68 | 1017.3 |
| 20260503071202 | 37 | 277 | 1.7 | 7.0 | 0.00 | 0.00 | 0.00 | 70 | 1017.3 |
| 20260503070659 | 37 | 297 | 5.2 | 13.0 | 0.00 | 0.00 | 0.00 | 68 | 1017.2 |
| 20260503070157 | 36 | 224 | 0.9 | 6.1 | 0.00 | 0.00 | 0.00 | 69 | 1017.1 |
| 20260503060121 | 38 | 297 | 3.5 | 6.1 | 0.00 | 0.00 | 0.00 | 68 | 1017.1 |
| 20260503055113 | 39 | 308 | 2.6 | 7.8 | 0.00 | 0.00 | 0.00 | 68 | 1017.1 |
| 20260503054608 | 39 | 280 | 4.3 | 8.7 | 0.00 | 0.00 | 0.00 | 68 | 1017.2 |
| 20260503054105 | 39 | 304 | 3.5 | 9.6 | 0.00 | 0.00 | 0.00 | 68 | 1017.2 |
| 20260503053604 | 39 | 283 | 5.2 | 8.7 | 0.00 | 0.00 | 0.00 | 68 | 1017.1 |
| 20260503053102 | 39 | 301 | 6.1 | 8.7 | 0.00 | 0.00 | 0.00 | 69 | 1017.0 |
| 20260503052558 | 38 | 285 | 1.7 | 3.5 | 0.00 | 0.00 | 0.00 | 72 | 1016.8 |
| 20260503052054 | 37 | 23 | 0.0 | 0.9 | 0.00 | 0.00 | 0.00 | 74 | 1017.0 |
| 20260503051550 | 36 | 278 | 1.7 | 1.7 | 0.00 | 0.00 | 0.00 | 75 | 1016.6 |
| 20260503051048 | 35 | 271 | 0.0 | 0.0 | 0.00 | 0.00 | 0.00 | 79 | 1016.8 |
| 20260503050543 | 35 | 133 | 0.0 | 0.0 | 0.00 | 0.00 | 0.00 | 79 | 1016.6 |
| 20260503050041 | 35 | 197 | 0.0 | 0.0 | 0.00 | 0.00 | 0.00 | 81 | 1017.0 |
| 20260503045538 | 35 | 199 | 0.0 | 0.0 | 0.00 | 0.00 | 0.00 | 81 | 1017.0 |
| 20260503045035 | 36 | 259 | 0.0 | 0.0 | 0.00 | 0.00 | 0.00 | 79 | 1016.7 |
| 20260503044532 | 36 | 284 | 0.0 | 0.9 | 0.00 | 0.00 | 0.00 | 75 | 1016.7 |
| 20260503044030 | 36 | 314 | 0.0 | 0.0 | 0.00 | 0.00 | 0.00 | 75 | 1017.0 |
| 20260503043525 | 35 | 169 | 0.0 | 0.0 | 0.00 | 0.00 | 0.00 | 77 | 1016.7 |
| 20260503043022 | 35 | 159 | 0.0 | 0.9 | 0.00 | 0.00 | 0.00 | 79 | 1016.7 |
| 20260503042519 | 36 | 34 | 0.0 | 0.9 | 0.00 | 0.00 | 0.00 | 80 | 1016.7 |
| 20260503042015 | 36 | 157 | 0.0 | 0.9 | 0.00 | 0.00 | 0.00 | 75 | 1016.7 |
| 20260503041512 | 36 | 130 | 0.0 | 0.0 | 0.00 | 0.00 | 0.00 | 78 | 1016.6 |
| 20260503041010 | 36 | 103 | 0.0 | 0.0 | 0.00 | 0.00 | 0.00 | 78 | 1016.8 |
| 20260503040507 | 37 | 146 | 0.0 | 0.0 | 0.00 | 0.00 | 0.00 | 78 | 1016.8 |
| 20260503040004 | 37 | 183 | 0.0 | 0.0 | 0.00 | 0.00 | 0.00 | 73 | 1016.8 |
| 20260503035501 | 38 | 214 | 0.0 | 0.0 | 0.00 | 0.00 | 0.00 | 72 | 1016.7 |
| 20260503034959 | 38 | 216 | 0.0 | 0.0 | 0.00 | 0.00 | 0.00 | 69 | 1017.0 |
| 20260503034456 | 39 | 280 | 0.0 | 0.0 | 0.00 | 0.00 | 0.00 | 67 | 1016.8 |
| 20260503033953 | 40 | 283 | 0.0 | 2.6 | 0.00 | 0.00 | 0.00 | 66 | 1016.7 |
| 20260503033450 | 40 | 299 | 4.3 | 6.1 | 0.00 | 0.00 | 0.00 | 64 | 1017.0 |
| 20260503032948 | 40 | 336 | 1.7 | 5.2 | 0.00 | 0.00 | 0.00 | 64 | 1016.7 |
| 20260503032446 | 40 | 304 | 1.7 | 3.5 | 0.00 | 0.00 | 0.00 | 63 | 1016.7 |
| 20260503031943 | 40 | 253 | 2.6 | 5.2 | 0.00 | 0.00 | 0.00 | 63 | 1017.0 |
| 20260503031441 | 40 | 288 | 2.6 | 5.2 | 0.00 | 0.00 | 0.00 | 64 | 1016.8 |
| 20260503030937 | 40 | 327 | 0.9 | 1.7 | 0.00 | 0.00 | 0.00 | 62 | 1017.0 |
| 20260503030434 | 40 | 300 | 1.7 | 5.2 | 0.00 | 0.00 | 0.00 | 62 | 1016.7 |
| 20260503025931 | 41 | 278 | 0.0 | 0.9 | 0.00 | 0.00 | 0.00 | 63 | 1016.8 |
| 20260503025428 | 41 | 208 | 0.9 | 1.7 | 0.00 | 0.00 | 0.00 | 63 | 1016.6 |
| 20260503024926 | 41 | 306 | 0.0 | 0.9 | 0.00 | 0.00 | 0.00 | 62 | 1017.0 |
| 20260503024422 | 41 | 308 | 1.7 | 1.7 | 0.00 | 0.00 | 0.00 | 62 | 1016.7 |
| 20260503023919 | 42 | 356 | 0.0 | 1.7 | 0.00 | 0.00 | 0.00 | 61 | 1016.6 |
| 20260503023416 | 41 | 285 | 5.2 | 6.1 | 0.00 | 0.00 | 0.00 | 61 | 1016.8 |
| 20260503022914 | 42 | 305 | 0.0 | 2.6 | 0.00 | 0.00 | 0.00 | 63 | 1016.6 |
| 20260503022414 | 42 | 306 | 0.0 | 3.5 | 0.00 | 0.00 | 0.00 | 61 | 1016.8 |
| 20260503021909 | 43 | 309 | 1.7 | 5.2 | 0.00 | 0.00 | 0.00 | 58 | 1016.6 |
| 20260503021406 | 43 | 310 | 4.3 | 5.2 | 0.00 | 0.00 | 0.00 | 61 | 1016.4 |
| 20260503020903 | 43 | 265 | 0.0 | 2.6 | 0.00 | 0.00 | 0.00 | 61 | 1016.6 |
| 20260503020401 | 42 | 283 | 3.5 | 7.0 | 0.00 | 0.00 | 0.00 | 60 | 1016.6 |
| 20260503015857 | 42 | 279 | 0.0 | 0.9 | 0.00 | 0.00 | 0.00 | 65 | 1016.5 |
| 20260503015354 | 42 | 205 | 0.0 | 2.6 | 0.00 | 0.00 | 0.00 | 62 | 1016.5 |
| 20260503014850 | 40 | 292 | 0.0 | 1.7 | 0.00 | 0.00 | 0.00 | 68 | 1016.6 |
| 20260503014348 | 40 | 121 | 0.0 | 0.0 | 0.00 | 0.00 | 0.00 | 68 | 1016.7 |
| 20260503013845 | 40 | 195 | 0.0 | 0.0 | 0.00 | 0.00 | 0.00 | 69 | 1016.4 |
| 20260503013342 | 40 | 195 | 0.0 | 0.0 | 0.00 | 0.00 | 0.00 | 70 | 1016.4 |
| 20260503012839 | 41 | 195 | 0.0 | 0.0 | 0.00 | 0.00 | 0.00 | 67 | 1016.5 |
| 20260503012337 | 41 | 195 | 0.0 | 0.0 | 0.00 | 0.00 | 0.00 | 65 | 1016.3 |
| 20260503011834 | 42 | 206 | 0.0 | 0.0 | 0.00 | 0.00 | 0.00 | 59 | 1016.4 |
| 20260503011331 | 43 | 289 | 0.0 | 0.9 | 0.00 | 0.00 | 0.00 | 59 | 1016.3 |
| 20260503010827 | 43 | 303 | 0.9 | 3.5 | 0.00 | 0.00 | 0.00 | 57 | 1016.3 |
| 20260503010324 | 42 | 216 | 0.0 | 1.7 | 0.00 | 0.00 | 0.00 | 58 | 1016.3 |
| 20260503005821 | 42 | 287 | 0.0 | 0.0 | 0.00 | 0.00 | 0.00 | 58 | 1016.2 |
| 20260503005318 | 42 | 274 | 0.9 | 0.9 | 0.00 | 0.00 | 0.00 | 58 | 1016.2 |